Location: Austin
(30.3000°N, 97.7500°W)
Time: 23:40:05
(UTC-05:00)

Cosmos 1666 Rocket - Pass Details

Date: 08 April 2026
Orbit: 597 x 625 km, 82.5° (Epoch: 20 April)

Event Time Altitude Azimuth Distance (km) Brightness Sun altitude
Rises 21:03:50 0° 188° (S) 2,830 6.8 -15.4°
Reaches altitude 10° 21:06:02 10° 190° (S) 1,929 6.0 -15.8°
Maximum altitude 21:10:18 76° 276° (W) 617 3.6 -16.7°
Drops below altitude 10° 21:14:34 10° 2° (N) 1,936 6.3 -17.6°
Sets 21:16:47 0° 4° (N) 2,842 7.2 -18.0°
